FW9287 Weather Reports


Display with metric or nautical units.
time (UTC)temp
F
wind
direction
speed
MPH
gust
MPH
rain 1hr
in
rain 24hr
in
rain mn
in
humidity
%
barometer
mb
20260510004554 98 264 2.0 8.0 0.00 0.00 0.00 7 913.7
20260510004450 98 292 3.0 8.0 0.00 0.00 0.00 7 913.6
20260510004344 98 280 3.0 8.0 0.00 0.00 0.00 7 913.7
20260510004240 98 304 3.0 12.0 0.00 0.00 0.00 8 913.7
20260510003917 98 200 3.0 12.0 0.00 0.00 0.00 7 913.7
20260510003550 98 242 2.0 12.0 0.00 0.00 0.00 7 913.7
20260510003446 98 219 2.0 12.0 0.00 0.00 0.00 7 913.6
20260510003343 98 258 2.0 12.0 0.00 0.00 0.00 7 913.6
20260510003236 98 260 3.0 12.0 0.00 0.00 0.00 7 913.7
20260510003133 98 355 3.0 12.0 0.00 0.00 0.00 7 913.6
20260510003030 98 264 3.0 12.0 0.00 0.00 0.00 7 913.7
20260510002926 98 246 3.0 12.0 0.00 0.00 0.00 7 913.7
20260510002820 98 274 4.0 12.0 0.00 0.00 0.00 7 913.7
20260510002715 98 258 4.0 12.0 0.00 0.00 0.00 8 913.7
20260510002610 98 218 4.0 12.0 0.00 0.00 0.00 8 913.7
20260510002502 98 304 5.0 12.0 0.00 0.00 0.00 7 913.7
20260510002359 98 208 4.0 12.0 0.00 0.00 0.00 7 913.7
20260510002250 98 241 4.0 10.0 0.00 0.00 0.00 7 913.7
20260510002148 98 273 4.0 10.0 0.00 0.00 0.00 7 913.7
20260510001559 98 215 4.0 10.0 0.00 0.00 0.00 7 913.7
20260510001017 98 207 4.0 13.0 0.00 0.00 0.00 7 913.8
20260510000911 99 229 4.0 13.0 0.00 0.00 0.00 7 913.8
20260510000808 99 234 4.0 13.0 0.00 0.00 0.00 7 913.8
20260510000703 99 227 4.0 13.0 0.00 0.00 0.00 7 913.8
20260510000601 99 205 4.0 13.0 0.00 0.00 0.00 8 913.8
20260510000456 99 246 5.0 13.0 0.00 0.00 0.00 8 913.8
20260510000356 99 140 4.0 13.0 0.00 0.00 0.00 8 913.9
20260510000249 99 227 5.0 13.0 0.00 0.00 0.00 7 913.8
20260510000141 99 232 5.0 13.0 0.00 0.00 0.00 7 913.9
20260510000038 99 229 4.0 13.0 0.00 0.00 0.00 7 913.9
20260509235932 99 233 4.0 13.0 0.00 0.00 0.00 7 913.9
20260509235830 99 222 3.0 13.0 0.00 0.00 0.00 7 913.9
20260509235725 99 254 3.0 13.0 0.00 0.00 0.00 8 913.9
20260509235619 99 225 3.0 13.0 0.00 0.00 0.00 8 913.9
20260509235517 99 219 3.0 13.0 0.00 0.00 0.00 7 913.9
20260509235410 99 232 2.0 7.0 0.00 0.00 0.00 7 913.9
20260509235306 99 259 2.0 7.0 0.00 0.00 0.00 7 914.0
20260509234935 99 259 1.0 11.0 0.00 0.00 0.00 8 914.0
20260509234832 99 272 1.0 11.0 0.00 0.00 0.00 8 914.0
20260509234727 99 232 2.0 11.0 0.00 0.00 0.00 8 914.0
20260509234621 99 210 2.0 11.0 0.00 0.00 0.00 7 914.0
20260509234514 99 150 2.0 11.0 0.00 0.00 0.00 7 914.0
20260509234409 99 194 3.0 11.0 0.00 0.00 0.00 7 914.0
20260509234303 99 151 3.0 11.0 0.00 0.00 0.00 8 914.0
20260509233940 99 219 4.0 11.0 0.00 0.00 0.00 7 914.1
20260509233834 99 298 4.0 11.0 0.00 0.00 0.00 7 914.1
20260509233731 99 238 4.0 11.0 0.00 0.00 0.00 7 914.1
20260509233623 100 213 3.0 11.0 0.00 0.00 0.00 7 914.0
20260509233520 100 173 3.0 11.0 0.00 0.00 0.00 7 914.1
20260509233413 100 215 2.0 11.0 0.00 0.00 0.00 7 914.1
20260509233049 100 252 1.0 11.0 0.00 0.00 0.00 7 914.1
20260509232943 100 225 0.0 6.0 0.00 0.00 0.00 7 914.1
20260509232840 100 277 0.0 3.0 0.00 0.00 0.00 8 914.1
20260509232737 100 9 0.0 3.0 0.00 0.00 0.00 7 914.1
20260509232632 100 9 0.0 3.0 0.00 0.00 0.00 7 914.1
20260509232528 100 9 0.0 3.0 0.00 0.00 0.00 7 914.1
20260509232422 100 24 1.0 3.0 0.00 0.00 0.00 7 914.1
20260509232316 100 24 1.0 9.0 0.00 0.00 0.00 7 914.1
20260509232209 100 38 1.0 9.0 0.00 0.00 0.00 7 914.1
20260509232106 100 325 1.0 9.0 0.00 0.00 0.00 7 914.1
20260509232002 100 332 1.0 9.0 0.00 0.00 0.00 7 914.1
20260509231856 100 303 1.0 9.0 0.00 0.00 0.00 7 914.1
20260509231751 100 335 1.0 9.0 0.00 0.00 0.00 7 914.1
20260509231648 100 45 1.0 9.0 0.00 0.00 0.00 7 914.1
20260509231546 100 188 1.0 9.0 0.00 0.00 0.00 7 914.2
20260509231442 100 288 1.0 9.0 0.00 0.00 0.00 7 914.1
20260509231337 100 304 1.0 9.0 0.00 0.00 0.00 8 914.2
20260509231232 100 205 2.0 9.0 0.00 0.00 0.00 7 914.2
20260509230907 99 236 2.0 9.0 0.00 0.00 0.00 8 914.3
20260509230800 99 201 2.0 9.0 0.00 0.00 0.00 8 914.2
20260509230656 99 158 2.0 9.0 0.00 0.00 0.00 7 914.3
20260509230549 99 83 2.0 9.0 0.00 0.00 0.00 7 914.4
20260509230446 99 320 2.0 9.0 0.00 0.00 0.00 8 914.3
20260509230340 100 241 2.0 9.0 0.00 0.00 0.00 7 914.2
20260509230232 100 281 2.0 9.0 0.00 0.00 0.00 8 914.2
20260509230130 100 240 2.0 9.0 0.00 0.00 0.00 8 914.2
20260509230026 100 274 2.0 9.0 0.00 0.00 0.00 8 914.2
20260509225921 100 344 2.0 9.0 0.00 0.00 0.00 8 914.2
20260509225818 100 294 2.0 9.0 0.00 0.00 0.00 8 914.2
20260509225714 100 288 2.0 9.0 0.00 0.00 0.00 8 914.2
20260509225609 100 331 2.0 9.0 0.00 0.00 0.00 7 914.2
20260509225504 100 355 2.0 9.0 0.00 0.00 0.00 7 914.2
20260509225356 100 320 2.0 9.0 0.00 0.00 0.00 8 914.3
20260509225033 100 229 1.0 6.0 0.00 0.00 0.00 8 914.3
20260509224926 99 225 1.0 5.0 0.00 0.00 0.00 8 914.3
20260509224822 99 214 1.0 5.0 0.00 0.00 0.00 8 914.3
20260509224715 99 207 1.0 5.0 0.00 0.00 0.00 8 914.3
20260509224608 99 219 1.0 10.0 0.00 0.00 0.00 8 914.4
20260509224245 99 249 1.0 10.0 0.00 0.00 0.00 8 914.5
20260509224138 99 10 1.0 10.0 0.00 0.00 0.00 7 914.5
20260509224032 99 34 1.0 10.0 0.00 0.00 0.00 7 914.5
20260509223449 99 158 3.0 10.0 0.00 0.00 0.00 8 914.6
20260509223344 99 161 3.0 10.0 0.00 0.00 0.00 7 914.6
20260509223238 99 175 3.0 10.0 0.00 0.00 0.00 8 914.6
20260509223134 99 203 3.0 10.0 0.00 0.00 0.00 8 914.6
20260509223027 99 174 3.0 10.0 0.00 0.00 0.00 8 914.6
20260509222700 100 229 3.0 10.0 0.00 0.00 0.00 8 914.7
20260509222554 100 219 3.0 10.0 0.00 0.00 0.00 8 914.7
20260509222446 100 194 3.0 10.0 0.00 0.00 0.00 8 914.7
20260509222342 100 220 2.0 10.0 0.00 0.00 0.00 7 914.7
20260509222240 100 196 2.0 10.0 0.00 0.00 0.00 7 914.8
20260509222133 100 220 3.0 10.0 0.00 0.00 0.00 8 914.8
20260509222035 100 223 3.0 10.0 0.00 0.00 0.00 8 914.9
20260509221924 100 296 3.0 10.0 0.00 0.00 0.00 8 914.8
20260509221553 99 238 4.0 10.0 0.00 0.00 0.00 8 914.9
20260509221451 99 306 4.0 10.0 0.00 0.00 0.00 8 914.9
20260509221345 99 0 4.0 10.0 0.00 0.00 0.00 8 914.9
20260509221239 99 260 4.0 10.0 0.00 0.00 0.00 8 914.8
20260509221134 99 214 4.0 10.0 0.00 0.00 0.00 7 914.9
20260509221031 99 225 3.0 10.0 0.00 0.00 0.00 8 914.9
20260509220924 99 227 3.0 9.0 0.00 0.00 0.00 8 915.0
20260509220822 99 250 3.0 9.0 0.00 0.00 0.00 8 914.9
20260509220455 99 232 2.0 7.0 0.00 0.00 0.00 8 915.1
20260509220350 99 197 2.0 7.0 0.00 0.00 0.00 8 915.1
20260509220243 99 188 2.0 7.0 0.00 0.00 0.00 8 915.1
20260509220140 99 227 1.0 6.0 0.00 0.00 0.00 8 915.1
20260509220037 99 188 1.0 6.0 0.00 0.00 0.00 8 915.2
20260509215934 99 267 1.0 6.0 0.00 0.00 0.00 7 915.2
20260509215348 99 271 1.0 6.0 0.00 0.00 0.00 7 915.3
20260509215246 99 339 1.0 6.0 0.00 0.00 0.00 8 915.3
20260509215142 99 298 1.0 11.0 0.00 0.00 0.00 8 915.4
20260509215039 98 311 2.0 11.0 0.00 0.00 0.00 7 915.4
20260509214932 98 248 2.0 11.0 0.00 0.00 0.00 8 915.4
20260509214829 98 279 3.0 11.0 0.00 0.00 0.00 8 915.4
20260509214723 98 228 3.0 11.0 0.00 0.00 0.00 8 915.5
20260509214621 98 186 3.0 11.0 0.00 0.00 0.00 8 915.5
20260509214515 98 212 3.0 11.0 0.00 0.00 0.00 8 915.4
20260509214147 98 307 4.0 11.0 0.00 0.00 0.00 8 915.6
20260509213820 98 221 3.0 11.0 0.00 0.00 0.00 9 915.6
20260509213455 98 182 2.0 11.0 0.00 0.00 0.00 8 915.6
20260509212911 98 200 1.0 6.0 0.00 0.00 0.00 9 915.7
20260509212806 98 271 1.0 6.0 0.00 0.00 0.00 8 915.7
20260509212440 98 225 2.0 8.0 0.00 0.00 0.00 8 915.8
20260509212333 98 175 3.0 8.0 0.00 0.00 0.00 8 915.9
20260509212226 98 155 3.0 8.0 0.00 0.00 0.00 8 915.9
20260509211901 98 203 4.0 8.0 0.00 0.00 0.00 8 915.9
20260509211758 98 205 4.0 8.0 0.00 0.00 0.00 8 915.9
20260509211651 98 205 4.0 8.0 0.00 0.00 0.00 8 915.9
20260509211545 98 217 4.0 8.0 0.00 0.00 0.00 8 916.0
20260509211442 98 228 4.0 8.0 0.00 0.00 0.00 8 915.9
20260509211335 98 229 4.0 8.0 0.00 0.00 0.00 8 915.9
20260509211232 98 231 3.0 8.0 0.00 0.00 0.00 8 916.0
20260509211130 98 229 3.0 8.0 0.00 0.00 0.00 8 916.0
20260509211028 98 218 2.0 8.0 0.00 0.00 0.00 8 915.9
20260509210921 98 168 2.0 8.0 0.00 0.00 0.00 8 916.0
20260509210816 98 227 2.0 8.0 0.00 0.00 0.00 8 916.1
20260509210709 98 232 1.0 8.0 0.00 0.00 0.00 8 916.1
20260509210604 98 228 1.0 6.0 0.00 0.00 0.00 8 916.1
20260509210458 98 186 0.0 4.0 0.00 0.00 0.00 8 916.1
20260509210356 98 255 1.0 4.0 0.00 0.00 0.00 8 916.0
20260509210253 98 288 1.0 4.0 0.00 0.00 0.00 9 916.1
20260509210151 98 90 1.0 8.0 0.00 0.00 0.00 9 916.1
20260509210044 98 187 1.0 8.0 0.00 0.00 0.00 8 916.1
20260509205938 98 218 1.0 8.0 0.00 0.00 0.00 8 916.1
20260509205833 98 25 2.0 8.0 0.00 0.00 0.00 8 916.1
20260509205729 98 342 2.0 8.0 0.00 0.00 0.00 8 916.1
20260509205624 98 220 2.0 8.0 0.00 0.00 0.00 8 916.1
20260509205520 98 234 2.0 8.0 0.00 0.00 0.00 9 916.2
20260509205155 98 183 3.0 8.0 0.00 0.00 0.00 8 916.2
20260509204828 98 196 3.0 8.0 0.00 0.00 0.00 8 916.2
20260509204726 98 232 2.0 8.0 0.00 0.00 0.00 8 916.2
20260509204401 98 238 1.0 8.0 0.00 0.00 0.00 9 916.1
20260509204257 98 221 1.0 8.0 0.00 0.00 0.00 8 916.2
20260509204153 98 305 1.0 7.0 0.00 0.00 0.00 9 916.2
20260509204051 97 244 1.0 7.0 0.00 0.00 0.00 9 916.2
20260509203947 97 266 1.0 7.0 0.00 0.00 0.00 9 916.2
20260509203841 97 304 1.0 7.0 0.00 0.00 0.00 9 916.2
20260509203517 97 200 1.0 7.0 0.00 0.00 0.00 8 916.2
20260509202932 96 225 1.0 5.0 0.00 0.00 0.00 9 916.3
20260509202826 96 23 0.0 5.0 0.00 0.00 0.00 9 916.3
20260509202722 96 132 0.0 5.0 0.00 0.00 0.00 9 916.3
20260509202615 96 311 0.0 5.0 0.00 0.00 0.00 9 916.3
20260509202507 96 153 1.0 5.0 0.00 0.00 0.00 9 916.3
20260509202404 96 158 1.0 5.0 0.00 0.00 0.00 8 916.3
20260509201559 96 217 2.0 8.0 0.00 0.00 0.00 10 916.5
20260509201453 96 238 2.0 8.0 0.00 0.00 0.00 10 916.4
20260509201345 96 166 3.0 8.0 0.00 0.00 0.00 9 916.5
20260509201241 96 213 3.0 8.0 0.00 0.00 0.00 9 916.5
20260509201135 96 227 3.0 8.0 0.00 0.00 0.00 9 916.5
20260509201033 96 240 2.0 8.0 0.00 0.00 0.00 9 916.5
20260509200928 96 220 2.0 8.0 0.00 0.00 0.00 9 916.5
20260509200825 96 211 2.0 8.0 0.00 0.00 0.00 9 916.5
20260509200719 96 169 3.0 8.0 0.00 0.00 0.00 9 916.6
20260509200358 96 179 2.0 8.0 0.00 0.00 0.00 9 916.6
20260509200255 96 191 2.0 8.0 0.00 0.00 0.00 9 916.6
20260509200149 97 219 2.0 7.0 0.00 0.00 0.00 9 916.6
20260509200046 97 175 2.0 7.0 0.00 0.00 0.00 9 916.6
20260509195941 97 225 2.0 7.0 0.00 0.00 0.00 9 916.6
20260509195837 97 213 2.0 7.0 0.00 0.00 0.00 9 916.7
20260509195733 97 205 2.0 7.0 0.00 0.00 0.00 9 916.7
20260509195629 97 221 1.0 5.0 0.00 0.00 0.00 9 916.7
20260509195301 96 183 0.0 8.0 0.00 0.00 0.00 9 916.8
20260509195156 96 213 0.0 8.0 0.00 0.00 0.00 9 916.7
20260509195051 96 234 0.0 8.0 0.00 0.00 0.00 9 916.8
20260509194946 96 292 0.0 8.0 0.00 0.00 0.00 9 916.8
20260509194843 96 15 0.0 8.0 0.00 0.00 0.00 9 916.8
20260509194739 95 34 0.0 8.0 0.00 0.00 0.00 9 916.8
20260509194634 95 139 1.0 8.0 0.00 0.00 0.00 10 916.8
20260509194531 95 140 2.0 8.0 0.00 0.00 0.00 9 916.8
20260509194206 95 279 2.0 8.0 0.00 0.00 0.00 10 916.9
20260509194059 95 254 2.0 8.0 0.00 0.00 0.00 9 916.8
20260509193951 95 296 2.0 8.0 0.00 0.00 0.00 9 916.9
20260509193844 95 207 2.0 8.0 0.00 0.00 0.00 9 916.9
20260509193741 95 219 2.0 8.0 0.00 0.00 0.00 9 916.9
20260509193634 95 223 1.0 8.0 0.00 0.00 0.00 9 916.9
20260509193531 95 200 1.0 8.0 0.00 0.00 0.00 10 916.9
20260509193428 95 231 0.0 8.0 0.00 0.00 0.00 10 916.9
20260509193322 95 236 0.0 8.0 0.00 0.00 0.00 10 916.9
20260509193217 95 229 1.0 8.0 0.00 0.00 0.00 9 916.9
20260509193111 95 211 1.0 8.0 0.00 0.00 0.00 9 917.0
20260509193008 95 240 1.0 8.0 0.00 0.00 0.00 9 917.0
20260509192905 95 219 1.0 8.0 0.00 0.00 0.00 9 916.9
20260509192802 94 79 2.0 8.0 0.00 0.00 0.00 9 917.0
20260509192656 94 175 2.0 8.0 0.00 0.00 0.00 10 917.0
20260509192335 94 226 2.0 8.0 0.00 0.00 0.00 10 917.1
20260509192228 94 206 2.0 8.0 0.00 0.00 0.00 9 917.1
20260509192122 94 208 2.0 8.0 0.00 0.00 0.00 9 917.1
20260509192017 94 225 2.0 8.0 0.00 0.00 0.00 9 917.1
20260509191913 94 229 2.0 8.0 0.00 0.00 0.00 10 917.1
20260509191806 94 198 2.0 8.0 0.00 0.00 0.00 10 917.1
20260509191704 94 203 1.0 8.0 0.00 0.00 0.00 10 917.1
20260509191601 94 200 1.0 8.0 0.00 0.00 0.00 10 917.1
20260509191456 94 269 1.0 5.0 0.00 0.00 0.00 10 917.1
20260509191350 94 294 2.0 5.0 0.00 0.00 0.00 10 917.1
20260509191246 94 281 2.0 8.0 0.00 0.00 0.00 10 917.1
20260509191142 94 259 2.0 8.0 0.00 0.00 0.00 10 917.2
20260509191039 94 209 2.0 8.0 0.00 0.00 0.00 9 917.2
20260509190717 93 205 3.0 8.0 0.00 0.00 0.00 10 917.3
20260509190614 93 229 2.0 8.0 0.00 0.00 0.00 10 917.3
20260509190510 93 217 2.0 8.0 0.00 0.00 0.00 10 917.3
20260509190406 93 182 3.0 8.0 0.00 0.00 0.00 10 917.3
20260509190036 93 209 3.0 8.0 0.00 0.00 0.00 10 917.4
20260509185929 93 225 2.0 8.0 0.00 0.00 0.00 10 917.4
20260509185825 93 230 2.0 8.0 0.00 0.00 0.00 10 917.4
20260509185723 93 234 2.0 8.0 0.00 0.00 0.00 10 917.4
20260509185618 93 205 2.0 8.0 0.00 0.00 0.00 10 917.4
20260509185516 93 230 2.0 8.0 0.00 0.00 0.00 10 917.4
20260509185414 93 234 2.0 8.0 0.00 0.00 0.00 10 917.4
20260509185310 93 229 1.0 8.0 0.00 0.00 0.00 10 917.4
20260509185206 93 236 1.0 4.0 0.00 0.00 0.00 10 917.4
20260509184839 93 5 0.0 4.0 0.00 0.00 0.00 10 917.3
20260509184257 93 259 1.0 4.0 0.00 0.00 0.00 11 917.4
20260509184152 93 205 1.0 4.0 0.00 0.00 0.00 11 917.4
20260509184049 93 200 1.0 7.0 0.00 0.00 0.00 10 917.5
20260509183944 92 262 1.0 7.0 0.00 0.00 0.00 12 917.5
20260509183621 92 314 1.0 7.0 0.00 0.00 0.00 11 917.5
20260509183514 92 307 1.0 7.0 0.00 0.00 0.00 11 917.5
20260509183407 92 259 1.0 7.0 0.00 0.00 0.00 11 917.5
20260509183304 92 244 1.0 7.0 0.00 0.00 0.00 11 917.5
20260509183201 92 237 1.0 7.0 0.00 0.00 0.00 12 917.5
20260509183052 92 241 1.0 7.0 0.00 0.00 0.00 11 917.5
20260509182943 92 228 2.0 7.0 0.00 0.00 0.00 11 917.5
20260509182621 92 176 2.0 7.0 0.00 0.00 0.00 11 917.6
20260509182516 92 195 2.0 7.0 0.00 0.00 0.00 11 917.6
20260509182408 92 208 2.0 7.0 0.00 0.00 0.00 11 917.5
20260509182302 92 203 1.0 7.0 0.00 0.00 0.00 11 917.6
20260509181940 91 260 1.0 4.0 0.00 0.00 0.00 11 917.6
20260509181832 91 261 1.0 3.0 0.00 0.00 0.00 11 917.6
20260509181725 91 280 1.0 3.0 0.00 0.00 0.00 11 917.6
20260509181618 91 265 1.0 3.0 0.00 0.00 0.00 10 917.6
20260509181512 91 264 1.0 3.0 0.00 0.00 0.00 10 917.6
20260509181404 91 323 1.0 3.0 0.00 0.00 0.00 10 917.6
20260509180814 91 220 1.0 5.0 0.00 0.00 0.00 11 917.6
20260509180710 90 219 1.0 5.0 0.00 0.00 0.00 12 917.7
20260509180607 90 271 1.0 5.0 0.00 0.00 0.00 11 917.7
20260509180237 90 246 1.0 5.0 0.00 0.00 0.00 11 917.7
20260509180134 90 262 1.0 5.0 0.00 0.00 0.00 11 917.7
20260509180029 90 256 1.0 5.0 0.00 0.00 0.00 11 917.7
20260509175927 90 302 1.0 6.0 0.00 0.00 0.00 11 917.7
20260509175825 90 278 1.0 6.0 0.00 0.00 0.00 11 917.7
20260509175721 90 320 1.0 6.0 0.00 0.00 0.00 11 917.7
20260509175619 90 234 1.0 6.0 0.00 0.00 0.00 11 917.7
20260509175517 90 125 2.0 6.0 0.00 0.00 0.00 11 917.7
20260509175415 90 158 2.0 6.0 0.00 0.00 0.00 11 917.7
20260509175311 90 158 2.0 6.0 0.00 0.00 0.00 11 917.7
20260509175207 90 191 2.0 6.0 0.00 0.00 0.00 11 917.7
20260509175104 90 222 2.0 6.0 0.00 0.00 0.00 11 917.7
20260509174958 90 221 2.0 6.0 0.00 0.00 0.00 11 917.7
20260509174850 90 218 2.0 6.0 0.00 0.00 0.00 11 917.8
20260509174527 90 212 2.0 6.0 0.00 0.00 0.00 11 917.8
20260509174422 90 241 1.0 6.0 0.00 0.00 0.00 11 917.8
20260509174314 90 229 1.0 6.0 0.00 0.00 0.00 11 917.8
20260509174212 90 257 1.0 6.0 0.00 0.00 0.00 11 917.9
20260509173627 89 232 1.0 6.0 0.00 0.00 0.00 12 917.8
20260509173524 89 227 0.0 6.0 0.00 0.00 0.00 12 917.8
20260509173417 89 294 0.0 6.0 0.00 0.00 0.00 12 917.9
20260509173312 89 298 1.0 6.0 0.00 0.00 0.00 13 917.9
20260509173205 89 248 1.0 6.0 0.00 0.00 0.00 13 917.9
20260509172842 88 315 1.0 6.0 0.00 0.00 0.00 12 917.9
20260509172738 88 311 1.0 6.0 0.00 0.00 0.00 12 917.8
20260509172636 88 23 1.0 6.0 0.00 0.00 0.00 12 917.8
20260509172534 88 278 1.0 6.0 0.00 0.00 0.00 13 917.8
20260509172210 88 229 1.0 6.0 0.00 0.00 0.00 13 917.9
20260509172105 88 255 1.0 6.0 0.00 0.00 0.00 13 917.9
20260509171958 88 296 1.0 6.0 0.00 0.00 0.00 13 917.8
20260509171854 88 232 1.0 6.0 0.00 0.00 0.00 12 917.8
20260509171749 87 298 1.0 6.0 0.00 0.00 0.00 12 917.8
20260509171647 87 237 1.0 6.0 0.00 0.00 0.00 12 917.8
20260509171545 87 326 1.0 6.0 0.00 0.00 0.00 12 917.9
20260509171438 87 265 1.0 6.0 0.00 0.00 0.00 12 917.9
20260509171330 87 278 1.0 6.0 0.00 0.00 0.00 13 917.9
20260509171226 87 261 1.0 6.0 0.00 0.00 0.00 12 917.9
20260509171123 87 202 1.0 6.0 0.00 0.00 0.00 12 917.8
20260509171020 87 288 1.0 6.0 0.00 0.00 0.00 12 917.9
20260509170913 87 302 1.0 6.0 0.00 0.00 0.00 13 917.9
20260509170808 87 273 1.0 6.0 0.00 0.00 0.00 12 917.9
20260509170701 87 301 2.0 6.0 0.00 0.00 0.00 12 917.8
20260509170556 87 278 2.0 6.0 0.00 0.00 0.00 12 917.9
20260509170452 86 276 2.0 6.0 0.00 0.00 0.00 13 917.9
20260509170350 86 227 2.0 6.0 0.00 0.00 0.00 13 917.8
20260509170246 86 233 2.0 6.0 0.00 0.00 0.00 13 917.9
20260509170144 86 219 2.0 6.0 0.00 0.00 0.00 13 917.9
20260509170039 86 250 2.0 6.0 0.00 0.00 0.00 13 917.9
20260509165712 86 287 1.0 6.0 0.00 0.00 0.00 13 917.9
20260509165606 86 243 1.0 6.0 0.00 0.00 0.00 13 917.9
20260509165501 86 242 1.0 6.0 0.00 0.00 0.00 13 917.8
20260509165359 86 262 2.0 6.0 0.00 0.00 0.00 13 917.9
20260509165252 86 255 2.0 6.0 0.00 0.00 0.00 13 917.9
20260509165148 86 240 2.0 6.0 0.00 0.00 0.00 13 917.9
20260509165042 85 267 2.0 6.0 0.00 0.00 0.00 13 917.9
20260509164936 85 252 2.0 6.0 0.00 0.00 0.00 14 917.8
20260509164829 85 306 2.0 6.0 0.00 0.00 0.00 13 917.8
20260509164722 85 267 2.0 6.0 0.00 0.00 0.00 13 917.8
20260509164615 85 207 2.0 6.0 0.00 0.00 0.00 13 917.8
20260509164509 85 225 2.0 6.0 0.00 0.00 0.00 13 917.8
20260509164402 85 215 1.0 6.0 0.00 0.00 0.00 14 917.8
20260509164032 85 292 1.0 5.0 0.00 0.00 0.00 14 917.8
20260509163710 85 289 1.0 5.0 0.00 0.00 0.00 14 917.8
20260509163604 85 245 1.0 5.0 0.00 0.00 0.00 14 917.9
20260509163241 84 258 1.0 5.0 0.00 0.00 0.00 15 917.9
20260509163137 84 242 1.0 5.0 0.00 0.00 0.00 15 917.9
20260509163029 84 262 1.0 5.0 0.00 0.00 0.00 15 917.9
20260509162926 84 249 1.0 5.0 0.00 0.00 0.00 15 917.9
20260509162818 84 269 1.0 5.0 0.00 0.00 0.00 15 917.9
20260509162711 84 266 1.0 5.0 0.00 0.00 0.00 15 917.9
20260509162608 84 244 2.0 5.0 0.00 0.00 0.00 16 917.9
20260509162501 84 272 2.0 5.0 0.00 0.00 0.00 15 917.9
20260509162356 84 292 2.0 5.0 0.00 0.00 0.00 15 917.9
20260509162029 84 248 2.0 5.0 0.00 0.00 0.00 15 917.9
20260509161925 84 253 2.0 5.0 0.00 0.00 0.00 16 918.0
20260509161819 84 251 2.0 5.0 0.00 0.00 0.00 15 917.9
20260509161712 84 241 1.0 5.0 0.00 0.00 0.00 15 918.0
20260509161610 84 242 1.0 5.0 0.00 0.00 0.00 16 917.9
20260509161503 84 331 1.0 5.0 0.00 0.00 0.00 15 918.0
20260509161357 84 319 1.0 5.0 0.00 0.00 0.00 15 917.9
20260509161252 84 318 1.0 5.0 0.00 0.00 0.00 15 917.9
20260509161147 83 264 1.0 5.0 0.00 0.00 0.00 15 917.9
20260509160822 83 253 0.0 3.0 0.00 0.00 0.00 16 917.9
20260509160500 83 271 0.0 2.0 0.00 0.00 0.00 15 917.9
20260509160357 83 275 0.0 2.0 0.00 0.00 0.00 16 917.8
20260509160254 83 208 0.0 2.0 0.00 0.00 0.00 15 917.9
20260509160150 83 207 0.0 2.0 0.00 0.00 0.00 15 917.9
20260509155602 83 259 0.0 2.0 0.00 0.00 0.00 17 917.9
20260509155456 83 244 0.0 2.0 0.00 0.00 0.00 16 917.9
20260509155349 83 207 0.0 2.0 0.00 0.00 0.00 16 917.9
20260509155246 83 202 0.0 2.0 0.00 0.00 0.00 17 917.9
20260509155142 83 236 0.0 0.0 0.00 0.00 0.00 18 917.9
20260509155034 82 236 0.0 0.0 0.00 0.00 0.00 18 917.9
20260509154930 82 238 0.0 0.0 0.00 0.00 0.00 18 917.9
20260509154826 82 238 0.0 0.0 0.00 0.00 0.00 18 917.9
20260509154721 82 238 0.0 0.0 0.00 0.00 0.00 18 917.9
20260509154358 82 241 0.0 1.0 0.00 0.00 0.00 18 917.9
20260509154034 81 236 0.0 1.0 0.00 0.00 0.00 19 917.9
20260509153927 81 236 0.0 1.0 0.00 0.00 0.00 18 917.9
20260509153342 81 215 0.0 1.0 0.00 0.00 0.00 18 917.9
20260509153238 81 215 0.0 1.0 0.00 0.00 0.00 18 917.9
20260509153133 81 215 0.0 1.0 0.00 0.00 0.00 19 917.9
20260509152546 80 215 0.0 0.0 0.00 0.00 0.00 19 917.9
20260509152223 80 215 0.0 2.0 0.00 0.00 0.00 18 917.8
20260509152115 79 215 0.0 2.0 0.00 0.00 0.00 19 917.8
20260509152008 79 213 0.0 1.0 0.00 0.00 0.00 19 917.9
20260509151906 79 225 0.0 2.0 0.00 0.00 0.00 19 917.9
20260509151539 79 243 0.0 1.0 0.00 0.00 0.00 20 917.8
20260509151213 78 281 0.0 0.0 0.00 0.00 0.00 21 917.9
20260509151106 78 281 0.0 0.0 0.00 0.00 0.00 20 917.8
20260509151002 78 281 0.0 0.0 0.00 0.00 0.00 20 917.8
20260509150857 78 28 0.0 0.0 0.00 0.00 0.00 20 917.8
20260509150751 78 148 0.0 0.0 0.00 0.00 0.00 20 917.8
20260509150645 78 226 0.0 0.0 0.00 0.00 0.00 21 917.8
20260509150540 78 226 0.0 0.0 0.00 0.00 0.00 21 917.8
20260509150437 78 226 0.0 0.0 0.00 0.00 0.00 21 917.8
20260509150333 77 226 0.0 0.0 0.00 0.00 0.00 21 917.8
20260509150231 77 226 0.0 0.0 0.00 0.00 0.00 20 917.8
20260509150126 77 226 0.0 0.0 0.00 0.00 0.00 20 917.8
20260509145802 77 226 0.0 0.0 0.00 0.00 0.00 21 917.8
20260509145657 77 226 0.0 0.0 0.00 0.00 0.00 21 917.8
20260509145112 76 226 0.0 1.0 0.00 0.00 0.00 21 917.8
20260509144744 75 226 0.0 0.0 0.00 0.00 0.00 22 917.7
20260509144640 75 226 0.0 0.0 0.00 0.00 0.00 22 917.7
20260509144315 75 226 0.0 0.0 0.00 0.00 0.00 23 917.7
20260509144212 75 226 0.0 0.0 0.00 0.00 0.00 23 917.7
20260509143845 74 226 0.0 0.0 0.00 0.00 0.00 23 917.7
20260509143739 74 226 0.0 0.0 0.00 0.00 0.00 23 917.7
20260509143634 74 226 0.0 0.0 0.00 0.00 0.00 24 917.7
20260509143525 74 226 0.0 0.0 0.00 0.00 0.00 22 917.8
20260509143200 73 226 0.0 0.0 0.00 0.00 0.00 22 917.7
20260509142355 72 226 0.0 1.0 0.00 0.00 0.00 24 917.7
20260509142252 72 226 0.0 1.0 0.00 0.00 0.00 24 917.7
20260509142148 72 226 0.0 1.0 0.00 0.00 0.00 24 917.7
20260509142042 72 224 0.0 1.0 0.00 0.00 0.00 24 917.7
20260509141939 72 226 0.0 1.0 0.00 0.00 0.00 25 917.7
20260509141613 71 226 0.0 1.0 0.00 0.00 0.00 25 917.8
20260509141509 71 226 0.0 1.0 0.00 0.00 0.00 25 917.8
20260509141403 71 226 0.0 1.0 0.00 0.00 0.00 24 917.8
20260509141258 71 226 0.0 1.0 0.00 0.00 0.00 26 917.8
20260509141153 71 226 0.0 1.0 0.00 0.00 0.00 26 917.8
20260509141047 70 225 0.0 0.0 0.00 0.00 0.00 25 917.8
20260509140940 70 225 0.0 0.0 0.00 0.00 0.00 25 917.7
20260509140833 70 225 0.0 0.0 0.00 0.00 0.00 26 917.8
20260509140729 70 225 0.0 0.0 0.00 0.00 0.00 27 917.7
20260509140404 70 225 0.0 0.0 0.00 0.00 0.00 26 917.7
20260509140257 70 225 0.0 0.0 0.00 0.00 0.00 26 917.7
20260509140153 69 225 0.0 0.0 0.00 0.00 0.00 26 917.6
20260509140050 69 225 0.0 0.0 0.00 0.00 0.00 26 917.6
20260509135943 69 225 0.0 0.0 0.00 0.00 0.00 26 917.7
20260509135838 69 225 0.0 0.0 0.00 0.00 0.00 26 917.6
20260509135735 69 225 0.0 2.0 0.00 0.00 0.00 26 917.7
20260509135631 69 225 0.0 2.0 0.00 0.00 0.00 26 917.7
20260509135524 69 225 0.0 2.0 0.00 0.00 0.00 26 917.6
20260509135417 68 227 0.0 2.0 0.00 0.00 0.00 26 917.6
20260509135314 68 177 0.0 1.0 0.00 0.00 0.00 26 917.6
20260509135212 68 90 0.0 0.0 0.00 0.00 0.00 26 917.5
20260509135106 68 90 0.0 0.0 0.00 0.00 0.00 26 917.5
20260509134746 68 90 0.0 0.0 0.00 0.00 0.00 27 917.5
20260509134424 68 90 0.0 0.0 0.00 0.00 0.00 27 917.4
20260509134321 67 90 0.0 0.0 0.00 0.00 0.00 26 917.4
20260509133957 67 90 0.0 1.0 0.00 0.00 0.00 26 917.3
20260509133630 67 90 0.0 1.0 0.00 0.00 0.00 26 917.3
20260509133528 66 93 0.0 1.0 0.00 0.00 0.00 26 917.3
20260509133421 66 106 0.0 1.0 0.00 0.00 0.00 26 917.3
20260509133101 66 112 0.0 0.0 0.00 0.00 0.00 27 917.3
20260509132956 66 112 0.0 1.0 0.00 0.00 0.00 26 917.3
20260509132847 66 69 0.0 1.0 0.00 0.00 0.00 26 917.3
20260509132521 66 69 0.0 0.0 0.00 0.00 0.00 27 917.1
20260509132156 66 69 0.0 0.0 0.00 0.00 0.00 27 917.2
20260509132049 66 69 0.0 0.0 0.00 0.00 0.00 26 917.2
20260509131943 66 69 0.0 1.0 0.00 0.00 0.00 26 917.1
20260509131840 66 69 0.0 1.0 0.00 0.00 0.00 26 917.1
20260509131738 66 69 0.0 1.0 0.00 0.00 0.00 26 917.1
20260509131633 66 69 0.0 0.0 0.00 0.00 0.00 26 917.1
20260509131528 66 69 0.0 0.0 0.00 0.00 0.00 26 917.0
20260509131203 66 69 0.0 1.0 0.00 0.00 0.00 26 917.0
20260509131101 66 77 0.0 1.0 0.00 0.00 0.00 26 916.9
20260509130956 66 73 0.0 1.0 0.00 0.00 0.00 26 917.0
20260509130848 66 54 0.0 1.0 0.00 0.00 0.00 26 917.0
20260509130740 66 54 0.0 1.0 0.00 0.00 0.00 26 916.9
20260509130637 66 54 0.0 1.0 0.00 0.00 0.00 26 917.0
20260509130533 66 54 0.0 1.0 0.00 0.00 0.00 26 916.9
20260509130427 66 54 0.0 1.0 0.00 0.00 0.00 26 916.9
20260509130319 66 53 0.0 1.0 0.00 0.00 0.00 26 916.9
20260509130215 66 53 0.0 1.0 0.00 0.00 0.00 26 916.9
20260509125848 67 53 0.0 1.0 0.00 0.00 0.00 25 916.9
20260509125522 67 315 0.0 0.0 0.00 0.00 0.00 26 916.9
20260509125157 67 315 0.0 0.0 0.00 0.00 0.00 26 916.8
20260509125050 67 315 0.0 0.0 0.00 0.00 0.00 26 916.7
20260509124948 67 315 0.0 0.0 0.00 0.00 0.00 26 916.8
20260509124620 67 315 0.0 0.0 0.00 0.00 0.00 26 916.8
20260509124256 67 315 0.0 0.0 0.00 0.00 0.00 25 916.7
20260509124150 67 315 0.0 0.0 0.00 0.00 0.00 25 916.8
20260509124048 67 315 0.0 0.0 0.00 0.00 0.00 25 916.7
20260509123941 67 315 0.0 0.0 0.00 0.00 0.00 25 916.7
20260509123616 67 315 0.0 0.0 0.00 0.00 0.00 25 916.7
20260509123509 67 315 0.0 0.0 0.00 0.00 0.00 25 916.7
20260509123143 67 315 0.0 0.0 0.00 0.00 0.00 25 916.6
20260509123035 67 315 0.0 0.0 0.00 0.00 0.00 25 916.6
20260509122930 67 315 0.0 0.0 0.00 0.00 0.00 25 916.6
20260509122823 67 315 0.0 0.0 0.00 0.00 0.00 25 916.6
20260509122716 67 315 0.0 0.0 0.00 0.00 0.00 25 916.5
20260509122609 67 315 0.0 0.0 0.00 0.00 0.00 25 916.5
20260509122503 67 315 0.0 0.0 0.00 0.00 0.00 25 916.6
20260509122356 67 315 0.0 0.0 0.00 0.00 0.00 25 916.5
20260509122249 67 315 0.0 0.0 0.00 0.00 0.00 25 916.5
20260509122142 67 315 0.0 0.0 0.00 0.00 0.00 26 916.5
20260509122037 67 315 0.0 1.0 0.00 0.00 0.00 25 916.6
20260509121934 67 315 0.0 1.0 0.00 0.00 0.00 25 916.6
20260509121827 67 331 0.0 0.0 0.00 0.00 0.00 25 916.6
20260509121725 67 331 0.0 0.0 0.00 0.00 0.00 25 916.6
20260509121622 67 331 0.0 1.0 0.00 0.00 0.00 25 916.6
20260509121515 67 331 0.0 1.0 0.00 0.00 0.00 25 916.6
20260509121412 67 331 0.0 1.0 0.00 0.00 0.00 25 916.6
20260509121304 67 331 0.0 1.0 0.00 0.00 0.00 25 916.6
20260509121158 67 329 0.0 1.0 0.00 0.00 0.00 25 916.6
20260509121056 67 325 0.0 1.0 0.00 0.00 0.00 26 916.6
20260509120948 67 325 0.0 0.0 0.00 0.00 0.00 26 916.6
20260509120627 67 325 0.0 2.0 0.00 0.00 0.00 26 916.6
20260509120523 67 338 0.0 2.0 0.00 0.00 0.00 25 916.6
20260509120416 67 342 0.0 2.0 0.00 0.00 0.00 25 916.6
20260509120314 67 339 0.0 2.0 0.00 0.00 0.00 25 916.6
20260509115948 67 327 0.0 0.0 0.00 0.00 0.00 25 916.6
20260509115842 67 326 0.0 2.0 0.00 0.00 0.00 25 916.6
20260509115519 67 313 0.0 2.0 0.00 0.00 0.00 25 916.5
20260509115415 67 294 0.0 2.0 0.00 0.00 0.00 25 916.5
20260509114834 67 297 0.0 2.0 0.00 0.00 0.00 25 916.5
20260509114728 67 310 0.0 2.0 0.00 0.00 0.00 24 916.5
20260509114621 67 310 0.0 2.0 0.00 0.00 0.00 24 916.5
20260509114517 68 315 0.0 2.0 0.00 0.00 0.00 24 916.5
20260509114156 68 295 0.0 1.0 0.00 0.00 0.00 24 916.4
20260509114053 68 295 0.0 1.0 0.00 0.00 0.00 24 916.4
20260509113730 68 338 0.0 0.0 0.00 0.00 0.00 23 916.4
20260509113627 68 338 0.0 0.0 0.00 0.00 0.00 23 916.4
20260509113520 68 338 0.0 1.0 0.00 0.00 0.00 23 916.4
20260509113158 68 338 0.0 0.0 0.00 0.00 0.00 23 916.4
20260509113055 68 338 0.0 2.0 0.00 0.00 0.00 23 916.3
20260509112949 68 338 0.0 2.0 0.00 0.00 0.00 23 916.3
20260509112844 68 338 0.0 2.0 0.00 0.00 0.00 23 916.4
20260509112740 68 338 0.0 1.0 0.00 0.00 0.00 23 916.3
20260509112633 68 338 0.0 1.0 0.00 0.00 0.00 23 916.3
20260509112529 68 338 0.0 1.0 0.00 0.00 0.00 23 916.4
20260509112424 68 338 0.0 1.0 0.00 0.00 0.00 23 916.3
20260509112318 68 338 0.0 1.0 0.00 0.00 0.00 23 916.3
20260509112215 68 338 0.0 1.0 0.00 0.00 0.00 23 916.3
20260509111852 69 355 0.0 1.0 0.00 0.00 0.00 24 916.3
20260509111748 69 355 0.0 0.0 0.00 0.00 0.00 23 916.3
20260509111642 69 355 0.0 3.0 0.00 0.00 0.00 23 916.3
20260509111535 69 355 0.0 3.0 0.00 0.00 0.00 24 916.3
20260509111430 69 355 0.0 3.0 0.00 0.00 0.00 23 916.3
20260509111322 69 355 0.0 3.0 0.00 0.00 0.00 23 916.3
20260509111220 68 355 1.0 3.0 0.00 0.00 0.00 23 916.3
20260509110855 68 346 1.0 3.0 0.00 0.00 0.00 23 916.3
20260509110746 68 346 0.0 3.0 0.00 0.00 0.00 23 916.4
20260509110641 68 342 0.0 3.0 0.00 0.00 0.00 23 916.3
20260509110538 68 346 0.0 3.0 0.00 0.00 0.00 23 916.3
20260509110430 68 17 0.0 3.0 0.00 0.00 0.00 23 916.3
20260509110323 68 17 0.0 3.0 0.00 0.00 0.00 23 916.3
20260509110216 68 31 0.0 2.0 0.00 0.00 0.00 23 916.3
20260509110113 68 31 0.0 1.0 0.00 0.00 0.00 23 916.3
20260509110010 68 12 0.0 1.0 0.00 0.00 0.00 23 916.4
20260509105904 69 12 0.0 1.0 0.00 0.00 0.00 23 916.3
20260509105756 69 22 0.0 1.0 0.00 0.00 0.00 23 916.3
20260509105652 69 28 0.0 1.0 0.00 0.00 0.00 23 916.4
20260509105548 69 28 0.0 1.0 0.00 0.00 0.00 23 916.3
20260509105445 69 5 0.0 1.0 0.00 0.00 0.00 23 916.4
20260509105114 69 9 1.0 3.0 0.00 0.00 0.00 23 916.3
20260509104748 69 338 1.0 3.0 0.00 0.00 0.00 23 916.3
20260509104641 69 355 0.0 3.0 0.00 0.00 0.00 23 916.3
20260509104538 70 5 0.0 3.0 0.00 0.00 0.00 23 916.3
20260509104432 70 18 0.0 3.0 0.00 0.00 0.00 23 916.3
20260509104325 70 5 0.0 3.0 0.00 0.00 0.00 23 916.3
20260509103955 70 342 0.0 3.0 0.00 0.00 0.00 23 916.2
20260509103849 70 61 0.0 0.0 0.00 0.00 0.00 23 916.2
20260509103742 70 61 0.0 0.0 0.00 0.00 0.00 23 916.2
20260509103637 70 61 0.0 0.0 0.00 0.00 0.00 23 916.2
20260509103311 70 61 0.0 3.0 0.00 0.00 0.00 23 916.2
20260509103204 70 61 0.0 2.0 0.00 0.00 0.00 23 916.2
20260509103100 70 61 0.0 2.0 0.00 0.00 0.00 23 916.2
20260509102957 70 61 0.0 2.0 0.00 0.00 0.00 23 916.2
20260509102854 70 61 0.0 2.0 0.00 0.00 0.00 23 916.2
20260509102747 70 46 0.0 2.0 0.00 0.00 0.00 22 916.2
20260509102423 71 46 0.0 2.0 0.00 0.00 0.00 22 916.2
20260509102055 71 111 0.0 1.0 0.00 0.00 0.00 22 916.2
20260509101948 71 111 0.0 0.0 0.00 0.00 0.00 22 916.2
20260509101845 71 111 0.0 0.0 0.00 0.00 0.00 22 916.2
20260509101738 71 111 0.0 0.0 0.00 0.00 0.00 22 916.2
20260509101410 71 111 0.0 1.0 0.00 0.00 0.00 22 916.2
20260509100826 72 190 0.0 0.0 0.00 0.00 0.00 22 916.3
20260509100721 72 190 0.0 0.0 0.00 0.00 0.00 21 916.3
20260509100614 72 190 0.0 0.0 0.00 0.00 0.00 22 916.3
20260509100507 72 190 0.0 0.0 0.00 0.00 0.00 22 916.4
20260509100400 72 190 0.0 0.0 0.00 0.00 0.00 21 916.3
20260509100255 72 190 0.0 0.0 0.00 0.00 0.00 21 916.3
20260509095933 72 190 0.0 3.0 0.00 0.00 0.00 21 916.3
20260509095830 72 190 0.0 3.0 0.00 0.00 0.00 21 916.3
20260509095505 72 15 1.0 2.0 0.00 0.00 0.00 21 916.2
20260509095357 72 15 1.0 2.0 0.00 0.00 0.00 21 916.3
20260509095251 72 10 1.0 2.0 0.00 0.00 0.00 21 916.3
20260509095145 72 22 1.0 2.0 0.00 0.00 0.00 21 916.3
20260509094820 72 342 1.0 2.0 0.00 0.00 0.00 21 916.2
20260509094713 72 355 0.0 2.0 0.00 0.00 0.00 21 916.3
20260509094609 72 338 0.0 2.0 0.00 0.00 0.00 21 916.3
20260509094505 72 338 0.0 2.0 0.00 0.00 0.00 21 916.3
20260509094401 73 338 1.0 2.0 0.00 0.00 0.00 20 916.3
20260509094258 73 344 1.0 2.0 0.00 0.00 0.00 20 916.3
20260509094154 73 338 0.0 2.0 0.00 0.00 0.00 20 916.3
20260509094051 73 343 1.0 2.0 0.00 0.00 0.00 20 916.2
20260509093948 73 324 1.0 2.0 0.00 0.00 0.00 20 916.2
20260509093841 73 347 1.0 2.0 0.00 0.00 0.00 20 916.2
20260509093737 73 350 1.0 2.0 0.00 0.00 0.00 20 916.2
20260509093634 73 348 1.0 2.0 0.00 0.00 0.00 20 916.2
20260509093527 73 329 1.0 2.0 0.00 0.00 0.00 20 916.2
20260509093424 73 325 1.0 2.0 0.00 0.00 0.00 20 916.3
20260509093318 73 0 1.0 2.0 0.00 0.00 0.00 20 916.2
20260509092952 73 355 1.0 2.0 0.00 0.00 0.00 20 916.2
20260509092850 73 355 1.0 2.0 0.00 0.00 0.00 20 916.2
20260509092746 74 347 1.0 2.0 0.00 0.00 0.00 20 916.2
20260509092640 74 355 0.0 2.0 0.00 0.00 0.00 20 916.2
20260509092538 74 355 0.0 2.0 0.00 0.00 0.00 20 916.2
20260509092434 74 340 0.0 1.0 0.00 0.00 0.00 20 916.2
20260509092331 74 331 0.0 1.0 0.00 0.00 0.00 20 916.2
20260509092229 74 340 0.0 1.0 0.00 0.00 0.00 20 916.2
20260509092127 74 340 0.0 1.0 0.00 0.00 0.00 20 916.2
20260509092019 74 340 0.0 1.0 0.00 0.00 0.00 20 916.2
20260509091916 74 340 0.0 1.0 0.00 0.00 0.00 20 916.2
20260509091813 74 340 0.0 1.0 0.00 0.00 0.00 20 916.2
20260509091706 75 340 0.0 1.0 0.00 0.00 0.00 20 916.2
20260509091337 75 325 0.0 1.0 0.00 0.00 0.00 19 916.2
20260509091230 75 306 0.0 1.0 0.00 0.00 0.00 19 916.2
20260509091128 75 306 0.0 1.0 0.00 0.00 0.00 19 916.2
20260509091022 75 306 0.0 1.0 0.00 0.00 0.00 19 916.2
20260509090657 76 306 0.0 1.0 0.00 0.00 0.00 19 916.2
20260509090550 76 306 0.0 1.0 0.00 0.00 0.00 19 916.2
20260509090444 76 306 0.0 1.0 0.00 0.00 0.00 19 916.2
20260509090339 76 301 0.0 0.0 0.00 0.00 0.00 19 916.2
20260509090231 76 301 0.0 0.0 0.00 0.00 0.00 19 916.2
20260509090127 76 301 0.0 0.0 0.00 0.00 0.00 19 916.2
20260509090021 76 301 0.0 0.0 0.00 0.00 0.00 19 916.2
20260509085917 76 301 0.0 0.0 0.00 0.00 0.00 19 916.1
20260509085814 76 301 0.0 0.0 0.00 0.00 0.00 19 916.1
20260509085707 77 301 0.0 0.0 0.00 0.00 0.00 18 916.1
20260509085604 77 301 0.0 2.0 0.00 0.00 0.00 18 916.0
20260509085238 77 284 0.0 2.0 0.00 0.00 0.00 18 916.1
20260509084912 77 233 0.0 2.0 0.00 0.00 0.00 19 916.0
20260509084547 77 71 0.0 0.0 0.00 0.00 0.00 19 916.1
20260509084445 77 71 0.0 0.0 0.00 0.00 0.00 19 916.0
20260509084124 77 71 0.0 0.0 0.00 0.00 0.00 19 916.0
20260509084021 77 71 0.0 2.0 0.00 0.00 0.00 19 916.0
20260509083916 77 71 0.0 2.0 0.00 0.00 0.00 19 916.0
20260509083335 77 82 0.0 1.0 0.00 0.00 0.00 19 916.0
20260509083228 77 82 0.0 1.0 0.00 0.00 0.00 19 916.0
20260509083123 77 82 0.0 1.0 0.00 0.00 0.00 18 915.9
20260509083016 77 86 0.0 1.0 0.00 0.00 0.00 18 916.0
20260509082910 77 74 0.0 1.0 0.00 0.00 0.00 18 916.0
20260509082804 77 88 0.0 1.0 0.00 0.00 0.00 18 916.0
20260509082702 77 90 0.0 0.0 0.00 0.00 0.00 18 915.9
20260509082559 77 92 0.0 0.0 0.00 0.00 0.00 18 915.9
20260509082453 77 92 0.0 0.0 0.00 0.00 0.00 18 915.9
20260509082347 77 92 0.0 0.0 0.00 0.00 0.00 18 916.0
20260509082244 77 92 0.0 0.0 0.00 0.00 0.00 18 916.0
20260509082137 77 92 0.0 0.0 0.00 0.00 0.00 18 915.9
20260509082032 77 92 0.0 0.0 0.00 0.00 0.00 18 916.0
20260509081924 77 92 0.0 0.0 0.00 0.00 0.00 18 916.0
20260509081821 77 92 0.0 0.0 0.00 0.00 0.00 18 916.0
20260509081720 77 92 0.0 0.0 0.00 0.00 0.00 18 915.9
20260509081614 77 92 0.0 0.0 0.00 0.00 0.00 18 915.9
20260509081251 77 92 0.0 0.0 0.00 0.00 0.00 18 916.0
20260509081144 77 92 0.0 5.0 0.00 0.00 0.00 18 916.0
20260509081038 77 92 1.0 5.0 0.00 0.00 0.00 18 916.0
20260509080931 77 92 1.0 5.0 0.00 0.00 0.00 18 916.0
20260509080607 77 81 1.0 5.0 0.00 0.00 0.00 18 916.0
20260509080246 77 93 0.0 5.0 0.00 0.00 0.00 18 916.0
20260509075924 77 78 0.0 5.0 0.00 0.00 0.00 18 916.0
20260509075818 77 81 0.0 3.0 0.00 0.00 0.00 18 916.0
20260509075714 77 102 0.0 3.0 0.00 0.00 0.00 18 916.0
20260509075611 77 79 0.0 0.0 0.00 0.00 0.00 18 916.0
20260509075504 77 74 0.0 0.0 0.00 0.00 0.00 18 916.0
20260509075400 77 80 0.0 0.0 0.00 0.00 0.00 18 916.0
20260509075036 77 80 0.0 0.0 0.00 0.00 0.00 17 916.0
20260509074929 77 80 0.0 2.0 0.00 0.00 0.00 17 915.9
20260509074822 77 80 0.0 2.0 0.00 0.00 0.00 17 916.0
20260509074456 78 80 0.0 2.0 0.00 0.00 0.00 17 916.0
20260509074350 78 66 0.0 2.0 0.00 0.00 0.00 17 916.0
20260509074246 78 66 0.0 2.0 0.00 0.00 0.00 17 916.0
20260509074140 78 66 0.0 2.0 0.00 0.00 0.00 17 916.0
20260509074036 78 66 0.0 2.0 0.00 0.00 0.00 17 916.0
20260509073708 78 81 0.0 2.0 0.00 0.00 0.00 17 915.9
20260509073604 78 69 0.0 2.0 0.00 0.00 0.00 17 916.0
20260509073500 78 66 0.0 2.0 0.00 0.00 0.00 17 915.9
20260509073133 79 61 0.0 1.0 0.00 0.00 0.00 17 915.9
20260509073028 79 61 0.0 1.0 0.00 0.00 0.00 17 915.9
20260509072924 79 61 0.0 1.0 0.00 0.00 0.00 17 915.9
20260509072819 79 61 0.0 1.0 0.00 0.00 0.00 17 915.8
20260509072717 79 61 0.0 1.0 0.00 0.00 0.00 17 915.8
20260509072612 79 61 0.0 1.0 0.00 0.00 0.00 17 915.8
20260509072029 79 61 0.0 0.0 0.00 0.00 0.00 17 915.8
20260509071705 79 61 0.0 0.0 0.00 0.00 0.00 17 915.7
20260509071601 79 61 0.0 0.0 0.00 0.00 0.00 17 915.7
20260509071457 79 61 0.0 0.0 0.00 0.00 0.00 16 915.8
20260509071132 79 67 0.0 2.0 0.00 0.00 0.00 16 915.7
20260509071024 79 71 0.0 1.0 0.00 0.00 0.00 16 915.8
20260509070922 79 74 0.0 3.0 0.00 0.00 0.00 16 915.7
20260509070817 79 74 0.0 3.0 0.00 0.00 0.00 16 915.7
20260509070710 79 74 0.0 3.0 0.00 0.00 0.00 16 915.8
20260509070603 79 68 0.0 3.0 0.00 0.00 0.00 16 915.8
20260509070240 79 67 1.0 3.0 0.00 0.00 0.00 16 915.8
20260509065655 79 64 1.0 3.0 0.00 0.00 0.00 16 915.7
20260509065552 79 63 1.0 3.0 0.00 0.00 0.00 16 915.7
20260509065447 79 60 1.0 3.0 0.00 0.00 0.00 16 915.7
20260509065339 79 70 1.0 3.0 0.00 0.00 0.00 17 915.7
20260509065232 79 57 1.0 3.0 0.00 0.00 0.00 17 915.7
20260509065127 78 61 1.0 3.0 0.00 0.00 0.00 17 915.7
20260509065022 78 74 1.0 3.0 0.00 0.00 0.00 17 915.7
20260509064917 78 58 0.0 2.0 0.00 0.00 0.00 17 915.7
20260509064809 78 74 0.0 2.0 0.00 0.00 0.00 17 915.7
20260509064221 78 65 0.0 1.0 0.00 0.00 0.00 17 915.7
20260509064114 78 70 0.0 1.0 0.00 0.00 0.00 17 915.6
20260509064010 78 84 0.0 1.0 0.00 0.00 0.00 17 915.7
20260509063906 78 76 0.0 1.0 0.00 0.00 0.00 17 915.7
20260509063803 78 61 0.0 1.0 0.00 0.00 0.00 17 915.6
20260509063656 78 78 0.0 2.0 0.00 0.00 0.00 17 915.7
20260509063334 78 68 1.0 2.0 0.00 0.00 0.00 17 915.7
20260509063227 78 69 1.0 2.0 0.00 0.00 0.00 17 915.7
20260509063121 78 76 0.0 2.0 0.00 0.00 0.00 17 915.7
20260509063019 78 80 0.0 2.0 0.00 0.00 0.00 17 915.8
20260509062915 78 80 0.0 2.0 0.00 0.00 0.00 17 915.7
20260509062809 78 83 0.0 2.0 0.00 0.00 0.00 17 915.7
20260509062440 78 73 0.0 2.0 0.00 0.00 0.00 17 915.7
20260509062336 78 75 0.0 2.0 0.00 0.00 0.00 17 915.7
20260509062233 78 78 0.0 2.0 0.00 0.00 0.00 17 915.7
20260509062125 78 77 0.0 2.0 0.00 0.00 0.00 16 915.7
20260509062019 78 74 0.0 2.0 0.00 0.00 0.00 16 915.7
20260509061657 78 70 0.0 2.0 0.00 0.00 0.00 16 915.7
20260509061549 78 70 0.0 2.0 0.00 0.00 0.00 16 915.7
20260509061445 79 70 0.0 2.0 0.00 0.00 0.00 16 915.7
20260509061340 79 67 0.0 2.0 0.00 0.00 0.00 16 915.7
20260509061234 79 65 0.0 2.0 0.00 0.00 0.00 16 915.7
20260509061130 79 59 0.0 2.0 0.00 0.00 0.00 16 915.7
20260509060542 80 355 0.0 1.0 0.00 0.00 0.00 15 915.6
20260509060438 80 323 0.0 1.0 0.00 0.00 0.00 15 915.7
20260509060331 81 244 0.0 0.0 0.00 0.00 0.00 15 915.7
20260509060227 81 244 0.0 1.0 0.00 0.00 0.00 15 915.7
20260509060121 81 244 0.0 1.0 0.00 0.00 0.00 15 915.7
20260509060018 81 244 0.0 1.0 0.00 0.00 0.00 15 915.7
20260509055913 81 244 0.0 0.0 0.00 0.00 0.00 15 915.6
20260509055554 81 244 0.0 0.0 0.00 0.00 0.00 15 915.6
20260509055448 82 244 0.0 3.0 0.00 0.00 0.00 15 915.6
20260509055124 82 230 0.0 3.0 0.00 0.00 0.00 15 915.5
20260509055016 82 242 0.0 3.0 0.00 0.00 0.00 15 915.5
20260509054909 82 236 0.0 3.0 0.00 0.00 0.00 14 915.6
20260509054804 82 234 0.0 2.0 0.00 0.00 0.00 14 915.4
20260509054441 82 81 0.0 0.0 0.00 0.00 0.00 14 915.4
20260509054117 82 81 1.0 4.0 0.00 0.00 0.00 14 915.3
20260509054014 82 68 1.0 4.0 0.00 0.00 0.00 14 915.3
20260509053909 82 86 2.0 4.0 0.00 0.00 0.00 14 915.3
20260509053540 82 78 1.0 4.0 0.00 0.00 0.00 14 915.3
20260509053434 82 63 1.0 4.0 0.00 0.00 0.00 14 915.3
20260509053330 82 36 1.0 3.0 0.00 0.00 0.00 14 915.3
20260509053225 82 55 1.0 4.0 0.00 0.00 0.00 14 915.3
20260509053119 82 59 1.0 4.0 0.00 0.00 0.00 14 915.3
20260509053015 82 54 1.0 4.0 0.00 0.00 0.00 14 915.3
20260509052649 83 49 1.0 4.0 0.00 0.00 0.00 14 915.3
20260509052541 83 29 1.0 4.0 0.00 0.00 0.00 14 915.3
20260509052434 83 61 1.0 4.0 0.00 0.00 0.00 14 915.4
20260509052331 83 54 2.0 4.0 0.00 0.00 0.00 14 915.4
20260509052227 83 28 2.0 4.0 0.00 0.00 0.00 14 915.4
20260509051903 83 44 2.0 4.0 0.00 0.00 0.00 14 915.4
20260509051757 83 33 2.0 4.0 0.00 0.00 0.00 14 915.3
20260509051650 83 26 2.0 4.0 0.00 0.00 0.00 14 915.4
20260509051546 83 48 2.0 4.0 0.00 0.00 0.00 14 915.4
20260509051441 83 49 2.0 4.0 0.00 0.00 0.00 14 915.4
20260509051337 83 36 2.0 4.0 0.00 0.00 0.00 14 915.3
20260509051234 83 28 2.0 4.0 0.00 0.00 0.00 14 915.3
20260509050434 83 42 1.0 4.0 0.00 0.00 0.00 14 915.3
20260509050328 83 30 1.0 4.0 0.00 0.00 0.00 14 915.3
20260509050006 83 32 1.0 4.0 0.00 0.00 0.00 14 915.2
20260509045902 83 36 1.0 4.0 0.00 0.00 0.00 14 915.3
20260509045757 83 44 1.0 4.0 0.00 0.00 0.00 14 915.3
20260509045432 83 42 1.0 4.0 0.00 0.00 0.00 14 915.3
20260509045326 83 34 1.0 4.0 0.00 0.00 0.00 13 915.3
20260509045219 83 12 1.0 4.0 0.00 0.00 0.00 13 915.3
20260509045112 84 36 1.0 4.0 0.00 0.00 0.00 13 915.3
20260509045005 84 37 1.0 4.0 0.00 0.00 0.00 13 915.2
20260509044901 84 33 2.0 4.0 0.00 0.00 0.00 13 915.2
20260509044758 84 39 2.0 4.0 0.00 0.00 0.00 13 915.2
20260509044652 84 47 2.0 4.0 0.00 0.00 0.00 13 915.3
20260509044545 84 51 2.0 4.0 0.00 0.00 0.00 13 915.2
20260509044440 84 34 2.0 4.0 0.00 0.00 0.00 13 915.3
20260509044334 84 23 2.0 4.0 0.00 0.00 0.00 13 915.2
20260509044230 84 36 2.0 4.0 0.00 0.00 0.00 13 915.2
20260509044124 84 36 2.0 4.0 0.00 0.00 0.00 13 915.2
20260509044020 84 34 2.0 4.0 0.00 0.00 0.00 13 915.2
20260509043915 84 47 2.0 4.0 0.00 0.00 0.00 13 915.2
20260509043808 84 36 2.0 4.0 0.00 0.00 0.00 13 915.2
20260509043703 84 32 2.0 4.0 0.00 0.00 0.00 13 915.2
20260509043339 84 29 2.0 4.0 0.00 0.00 0.00 13 915.2
20260509043236 84 37 2.0 4.0 0.00 0.00 0.00 13 915.2
20260509043130 84 44 2.0 4.0 0.00 0.00 0.00 13 915.2
20260509043025 84 20 2.0 4.0 0.00 0.00 0.00 13 915.2
20260509042701 84 44 2.0 4.0 0.00 0.00 0.00 13 915.2
20260509042555 84 40 2.0 4.0 0.00 0.00 0.00 13 915.2
20260509042232 84 45 2.0 4.0 0.00 0.00 0.00 13 915.2
20260509042124 84 63 2.0 4.0 0.00 0.00 0.00 13 915.1
20260509042020 84 50 1.0 4.0 0.00 0.00 0.00 13 915.1
20260509041654 84 76 1.0 4.0 0.00 0.00 0.00 13 915.1
20260509041547 84 47 1.0 4.0 0.00 0.00 0.00 13 915.1
20260509041442 84 57 1.0 4.0 0.00 0.00 0.00 13 915.1
20260509041336 84 62 1.0 4.0 0.00 0.00 0.00 13 915.0
20260509041234 84 90 1.0 4.0 0.00 0.00 0.00 13 915.1
20260509041127 84 59 1.0 4.0 0.00 0.00 0.00 13 915.1
20260509040800 84 81 1.0 3.0 0.00 0.00 0.00 13 914.9
20260509040656 84 68 1.0 3.0 0.00 0.00 0.00 13 914.9
20260509040549 84 57 1.0 3.0 0.00 0.00 0.00 13 914.9
20260509040442 84 62 1.0 3.0 0.00 0.00 0.00 13 915.0
20260509040335 84 57 1.0 3.0 0.00 0.00 0.00 13 915.0
20260509040229 85 78 1.0 3.0 0.00 0.00 0.00 13 915.0
20260509040127 85 81 1.0 3.0 0.00 0.00 0.00 13 914.9
20260509040022 85 74 1.0 3.0 0.00 0.00 0.00 13 915.0
20260509035917 85 80 1.0 3.0 0.00 0.00 0.00 13 914.9
20260509035812 85 78 1.0 3.0 0.00 0.00 0.00 13 914.9
20260509035451 85 72 1.0 3.0 0.00 0.00 0.00 13 914.9
20260509035344 85 67 0.0 3.0 0.00 0.00 0.00 13 914.9
20260509034756 85 61 0.0 3.0 0.00 0.00 0.00 13 914.9
20260509034650 85 71 0.0 3.0 0.00 0.00 0.00 13 914.9
20260509034548 85 64 0.0 3.0 0.00 0.00 0.00 13 914.9
20260509034441 85 88 0.0 3.0 0.00 0.00 0.00 13 914.9
20260509034338 85 84 0.0 3.0 0.00 0.00 0.00 13 914.9
20260509034234 85 66 0.0 3.0 0.00 0.00 0.00 13 914.9
20260509034131 85 80 0.0 3.0 0.00 0.00 0.00 14 914.8
20260509034026 85 81 0.0 3.0 0.00 0.00 0.00 13 914.9
20260509033921 85 74 0.0 3.0 0.00 0.00 0.00 13 914.8
20260509033818 85 48 0.0 3.0 0.00 0.00 0.00 13 914.8
20260509033711 85 66 0.0 1.0 0.00 0.00 0.00 13 914.8
20260509033608 85 55 0.0 1.0 0.00 0.00 0.00 13 914.8
20260509033503 85 63 0.0 1.0 0.00 0.00 0.00 13 914.8
20260509033359 85 52 0.0 1.0 0.00 0.00 0.00 13 914.8
20260509033253 85 78 0.0 1.0 0.00 0.00 0.00 13 914.8
20260509033145 86 69 0.0 1.0 0.00 0.00 0.00 13 914.8
20260509033041 86 78 0.0 1.0 0.00 0.00 0.00 13 914.7
20260509032936 86 84 0.0 1.0 0.00 0.00 0.00 13 914.7
20260509032833 86 82 0.0 1.0 0.00 0.00 0.00 13 914.7
20260509032727 86 82 0.0 1.0 0.00 0.00 0.00 13 914.7
20260509032620 86 82 0.0 1.0 0.00 0.00 0.00 13 914.7
20260509032514 86 78 0.0 1.0 0.00 0.00 0.00 13 914.7
20260509032412 86 83 0.0 1.0 0.00 0.00 0.00 13 914.7
20260509032310 86 74 0.0 1.0 0.00 0.00 0.00 13 914.7
20260509031945 87 72 0.0 1.0 0.00 0.00 0.00 13 914.6
20260509031837 87 69 0.0 1.0 0.00 0.00 0.00 13 914.6
20260509031731 87 71 0.0 1.0 0.00 0.00 0.00 13 914.6
20260509031406 87 80 0.0 1.0 0.00 0.00 0.00 13 914.5
20260509031304 87 76 0.0 1.0 0.00 0.00 0.00 13 914.5
20260509031158 87 78 0.0 1.0 0.00 0.00 0.00 13 914.5
20260509031055 88 78 0.0 1.0 0.00 0.00 0.00 13 914.5
20260509030948 88 97 0.0 1.0 0.00 0.00 0.00 13 914.5
20260509030844 88 107 0.0 1.0 0.00 0.00 0.00 13 914.6
20260509030742 88 107 0.0 1.0 0.00 0.00 0.00 13 914.5
20260509030635 88 121 0.0 1.0 0.00 0.00 0.00 13 914.5
20260509030529 88 147 0.0 1.0 0.00 0.00 0.00 13 914.5
20260509030425 89 165 0.0 1.0 0.00 0.00 0.00 13 914.5
20260509030320 89 165 0.0 1.0 0.00 0.00 0.00 13 914.5
20260509030214 89 169 0.0 1.0 0.00 0.00 0.00 12 914.5
20260509025849 89 169 0.0 0.0 0.00 0.00 0.00 12 914.5
20260509025745 89 169 0.0 0.0 0.00 0.00 0.00 12 914.5
20260509025642 89 169 0.0 0.0 0.00 0.00 0.00 12 914.4
20260509025538 89 169 0.0 0.0 0.00 0.00 0.00 12 914.5
20260509025217 90 169 0.0 0.0 0.00 0.00 0.00 12 914.4
20260509025114 90 169 0.0 0.0 0.00 0.00 0.00 12 914.4
20260509025011 90 169 0.0 0.0 0.00 0.00 0.00 12 914.4
20260509024906 90 169 0.0 0.0 0.00 0.00 0.00 12 914.4
20260509024759 90 169 0.0 0.0 0.00 0.00 0.00 12 914.4
20260509024654 90 169 0.0 0.0 0.00 0.00 0.00 12 914.4
20260509024327 90 169 0.0 1.0 0.00 0.00 0.00 12 914.4
20260509024000 91 183 0.0 0.0 0.00 0.00 0.00 12 914.4
20260509023855 91 183 0.0 0.0 0.00 0.00 0.00 12 914.4
20260509023749 91 183 0.0 0.0 0.00 0.00 0.00 12 914.4
20260509023643 91 183 0.0 0.0 0.00 0.00 0.00 12 914.4
20260509023540 91 183 0.0 0.0 0.00 0.00 0.00 12 914.4
20260509023213 91 183 0.0 0.0 0.00 0.00 0.00 12 914.4
20260509023106 91 183 0.0 0.0 0.00 0.00 0.00 12 914.4
20260509022743 91 183 0.0 4.0 0.00 0.00 0.00 11 914.4
20260509022636 91 183 0.0 4.0 0.00 0.00 0.00 11 914.4
20260509022534 92 183 1.0 4.0 0.00 0.00 0.00 11 914.4
20260509022430 92 183 1.0 4.0 0.00 0.00 0.00 11 914.4
20260509022328 92 183 1.0 4.0 0.00 0.00 0.00 11 914.4
20260509022225 92 183 1.0 4.0 0.00 0.00 0.00 11 914.4
20260509022121 92 187 1.0 4.0 0.00 0.00 0.00 11 914.4
20260509022018 92 186 1.0 4.0 0.00 0.00 0.00 11 914.4
20260509021914 92 194 1.0 4.0 0.00 0.00 0.00 11 914.4
20260509021808 92 197 1.0 4.0 0.00 0.00 0.00 11 914.4
20260509021705 92 198 1.0 4.0 0.00 0.00 0.00 11 914.4
20260509021600 92 210 0.0 4.0 0.00 0.00 0.00 11 914.4
20260509021455 92 202 0.0 3.0 0.00 0.00 0.00 11 914.4
20260509021131 93 170 0.0 3.0 0.00 0.00 0.00 11 914.4
20260509021025 93 173 0.0 3.0 0.00 0.00 0.00 11 914.4
20260509020920 93 180 0.0 3.0 0.00 0.00 0.00 11 914.4
20260509020816 93 149 0.0 3.0 0.00 0.00 0.00 11 914.4
20260509020709 93 149 0.0 3.0 0.00 0.00 0.00 11 914.4
20260509020604 93 185 0.0 3.0 0.00 0.00 0.00 11 914.4
20260509020458 93 215 0.0 3.0 0.00 0.00 0.00 11 914.4
20260509020356 93 199 0.0 2.0 0.00 0.00 0.00 11 914.4
20260509020252 93 189 0.0 2.0 0.00 0.00 0.00 11 914.4
20260509020148 93 163 0.0 2.0 0.00 0.00 0.00 11 914.3
20260509020045 93 163 0.0 4.0 0.00 0.00 0.00 11 914.3
20260509015944 93 163 1.0 4.0 0.00 0.00 0.00 11 914.3
20260509015837 93 186 1.0 4.0 0.00 0.00 0.00 11 914.4
20260509015733 93 170 1.0 4.0 0.00 0.00 0.00 11 914.3
20260509015627 94 174 1.0 4.0 0.00 0.00 0.00 11 914.3
20260509015259 94 207 1.0 4.0 0.00 0.00 0.00 11 914.3
20260509014937 94 224 1.0 4.0 0.00 0.00 0.00 11 914.3
20260509014834 94 208 1.0 4.0 0.00 0.00 0.00 11 914.3
20260509014727 94 180 1.0 4.0 0.00 0.00 0.00 10 914.3
20260509014622 94 196 1.0 4.0 0.00 0.00 0.00 11 914.3
20260509014517 94 155 1.0 4.0 0.00 0.00 0.00 11 914.3
20260509014414 94 178 1.0 4.0 0.00 0.00 0.00 11 914.3
20260509014307 94 168 1.0 4.0 0.00 0.00 0.00 11 914.3
20260509014203 94 180 1.0 4.0 0.00 0.00 0.00 11 914.3
20260509014056 94 187 1.0 4.0 0.00 0.00 0.00 11 914.3
20260509013731 94 155 1.0 4.0 0.00 0.00 0.00 11 914.3
20260509013627 94 153 1.0 4.0 0.00 0.00 0.00 11 914.3
20260509013303 94 173 1.0 6.0 0.00 0.00 0.00 11 914.3
20260509012933 94 223 2.0 6.0 0.00 0.00 0.00 11 914.4
20260509012828 95 154 2.0 6.0 0.00 0.00 0.00 10 914.3
20260509012721 95 169 2.0 6.0 0.00 0.00 0.00 10 914.4
20260509012620 95 186 2.0 6.0 0.00 0.00 0.00 11 914.4
20260509012251 95 178 1.0 9.0 0.00 0.00 0.00 11 914.4
20260509012144 95 174 1.0 9.0 0.00 0.00 0.00 11 914.4
20260509012040 95 201 1.0 9.0 0.00 0.00 0.00 11 914.3
20260509011933 95 207 1.0 9.0 0.00 0.00 0.00 11 914.3
20260509011831 95 226 1.0 9.0 0.00 0.00 0.00 11 914.4
20260509011725 95 65 2.0 9.0 0.00 0.00 0.00 10 914.4
20260509011620 95 65 2.0 9.0 0.00 0.00 0.00 10 914.3
20260509011254 95 182 4.0 9.0 0.00 0.00 0.00 11 914.4
20260509011151 95 213 4.0 9.0 0.00 0.00 0.00 11 914.4
20260509010828 95 240 3.0 9.0 0.00 0.00 0.00 11 914.4
20260509010508 95 232 2.0 9.0 0.00 0.00 0.00 10 914.4
20260509010405 95 201 2.0 9.0 0.00 0.00 0.00 11 914.5
20260509010301 95 213 2.0 7.0 0.00 0.00 0.00 10 914.4
20260509010154 95 225 2.0 7.0 0.00 0.00 0.00 11 914.4
20260509005825 95 213 2.0 7.0 0.00 0.00 0.00 11 914.4
20260509005721 95 237 2.0 7.0 0.00 0.00 0.00 10 914.5
20260509005351 95 235 3.0 7.0 0.00 0.00 0.00 11 914.5
20260509005247 95 294 3.0 8.0 0.00 0.00 0.00 11 914.5
20260509005140 95 236 3.0 8.0 0.00 0.00 0.00 10 914.5
20260509005038 95 216 3.0 8.0 0.00 0.00 0.00 10 914.5
20260509004929 95 163 3.0 8.0 0.00 0.00 0.00 11 914.5
20260509004827 95 168 3.0 8.0 0.00 0.00 0.00 11 914.5
20260509004721 95 185 3.0 8.0 0.00 0.00 0.00 10 914.5